Terminal Aerodrome Forecast
Issued by NWS Blacksburg, VA

Current Version | Previous Version | Graphics & Text | Print | Product List | Glossary On
Versions: 1 2 3 4 5 6 7 8 9 10 11 12 13 14 15 16 17 18 19 20 21 22 23 24 25 26 27 28
000
FTUS41 KRNK 140522
TAFBLF
TAF
KBLF 140522Z 1406/1506 14004KT 1/2SM -RA FG BKN004 OVC015
      TEMPO 1406/1409 1/4SM FG OVC001
     FM140900 18006KT 1SM BR OVC002
     FM141400 23007KT 3SM BR VCSH OVC007
     FM142000 26008KT 2SM -RA BR OVC010
     FM150100 26006KT 4SM -RA BR OVC005=

USA.gov is the U.S. government's official web portal to all federal, state and local government web resources and services.